Bookmark and Share
Track history (hours):
 

Amarant

Last reported at 2014-Apr-24 11:28 UTC. Time now 2014-Apr-24 19:51 UTC.
Position N 53°44' E 000°39'.

Length 120 m; draft 5.7 m.

Type: Tanker. MMSI: 255623000.

NotesDate/timePositionNaut miles runAvg speedWind from/ knotsBaromVisibWave heightAir tempDewpointWater temp
2014-Apr-24 11:28N 53°44' E 000°39'1213.2
2014-Apr-24 10:33N 53°38' E 000°22'1010.0
2014-Apr-24 09:33N 53°34' E 000°06'1211.7
2014-Apr-24 08:33N 53°39' W 000°11'6 6.3
2014-Apr-24 07:31N 53°45' W 000°16'0 0.4
2014-Apr-24 06:25N 53°45' W 000°15'0 0.0
2014-Apr-23 21:20N 53°45' W 000°15'1 0.7
2014-Apr-23 20:33N 53°44' W 000°16'3 3.3
2014-Apr-23 19:33N 53°42' W 000°14'7 7.0
2014-Apr-23 18:33N 53°37' W 000°05'9 9.1
2014-Apr-23 17:33N 53°33' E 000°09'9 9.2
2014-Apr-23 16:33N 53°33' E 000°25'6 5.8
2014-Apr-23 15:33N 53°30' E 000°33'34 9.7
2014-Apr-23 12:03N 53°13' E 001°21'5 9.8
2014-Apr-23 11:33N 53°09' E 001°28'1010.5
2014-Apr-23 10:33N 53°02' E 001°41'1111.4
2014-Apr-23 09:33N 52°56' E 001°57'1413.8
2014-Apr-23 08:32N 52°46' E 002°12'1514.9
2014-Apr-23 07:33N 52°32' E 002°19'5112.8
2014-Apr-23 03:33N 51°46' E 002°57'1413.0
2014-Apr-23 02:28N 51°41' E 003°18'1112.3
2014-Apr-23 01:33N 51°31' E 003°26'10 9.6
2014-Apr-23 00:34N 51°26' E 003°40'1111.1
2014-Apr-22 23:33N 51°25' E 003°58'1110.7
2014-Apr-22 22:34N 51°22' E 004°14'2 2.2
2014-Apr-22 21:34N 51°21' E 004°17'4 3.8
2014-Apr-22 20:33N 51°17' E 004°20'2 2.3
2014-Apr-22 19:31N 51°15' E 004°22'0 0.0
2014-Apr-22 18:31N 51°15' E 004°22'0 0.0
2014-Apr-22 17:31N 51°15' E 004°22'0 0.0
2014-Apr-22 16:31N 51°15' E 004°22'0 0.0
2014-Apr-22 15:31N 51°15' E 004°22'0 0.0
2014-Apr-22 14:31N 51°15' E 004°22'0 0.0
2014-Apr-22 13:31N 51°15' E 004°22'0 0.0
2014-Apr-22 12:31N 51°15' E 004°22'0 0.0
2014-Apr-22 11:31N 51°15' E 004°22'0 0.0
2014-Apr-22 10:31N 51°15' E 004°22'0 0.0
2014-Apr-22 09:31N 51°15' E 004°22'0 0.0
2014-Apr-22 08:31N 51°15' E 004°22'0 0.0
2014-Apr-22 07:31N 51°15' E 004°22'0 0.0
2014-Apr-22 06:31N 51°15' E 004°22'0 0.0
2014-Apr-22 05:31N 51°15' E 004°22'0 0.0
2014-Apr-22 04:31N 51°15' E 004°22'0 0.0
2014-Apr-22 03:31N 51°15' E 004°22'0 0.0
2014-Apr-22 02:31N 51°15' E 004°22'0 0.0
2014-Apr-22 01:34N 51°15' E 004°22'0 0.0
2014-Apr-22 00:34N 51°15' E 004°22'0 0.0
2014-Apr-21 23:33N 51°15' E 004°22'0 0.0
2014-Apr-21 22:33N 51°15' E 004°22'0 0.0
2014-Apr-21 21:33N 51°15' E 004°22'0 0.0
2014-Apr-21 20:33N 51°15' E 004°22'0 0.0
2014-Apr-21 19:33N 51°15' E 004°22'0 0.0
2014-Apr-21 18:33N 51°15' E 004°22'0 0.3
2014-Apr-21 17:33N 51°15' E 004°22'0 0.1
2014-Apr-21 16:33N 51°15' E 004°22'0 0.0
2014-Apr-21 15:33N 51°15' E 004°22'0 0.0
2014-Apr-21 14:33N 51°15' E 004°22'0 0.0
2014-Apr-21 13:33N 51°15' E 004°22'0 0.0
2014-Apr-21 12:33N 51°15' E 004°22'0 0.0
2014-Apr-21 11:33N 51°15' E 004°22'0 0.0
2014-Apr-21 10:33N 51°15' E 004°22'0 0.0
2014-Apr-21 09:33N 51°15' E 004°22'0 0.0
2014-Apr-21 08:33N 51°15' E 004°22'0 0.0
2014-Apr-21 07:33N 51°15' E 004°22'0 0.0
2014-Apr-21 06:33N 51°15' E 004°22'0 0.0
2014-Apr-21 05:33N 51°15' E 004°22'0 0.0
2014-Apr-21 04:33N 51°15' E 004°22'0 0.0
2014-Apr-21 03:33N 51°15' E 004°22'0 0.0
2014-Apr-21 02:33N 51°15' E 004°22'0 0.0
2014-Apr-21 01:33N 51°15' E 004°22'0 0.0
2014-Apr-21 00:33N 51°15' E 004°22'0 0.0
2014-Apr-20 23:33N 51°15' E 004°22'0 0.0
2014-Apr-20 22:33N 51°15' E 004°22'0 0.0
2014-Apr-20 21:33N 51°15' E 004°22'0 0.0
2014-Apr-20 20:33N 51°15' E 004°22'0 0.0
2014-Apr-20 19:33N 51°15' E 004°22'0 0.0
2014-Apr-20 18:33N 51°15' E 004°22'0 0.0
2014-Apr-20 17:33N 51°15' E 004°22'0 0.0
2014-Apr-20 16:33N 51°15' E 004°22'0 0.0
2014-Apr-20 15:33N 51°15' E 004°22'2 2.2
2014-Apr-20 14:34N 51°17' E 004°20'1 1.5
2014-Apr-20 13:33N 51°18' E 004°18'7 7.4
2014-Apr-20 12:33N 51°23' E 004°10'1 0.8
2014-Apr-20 11:33N 51°22' E 004°09'4 4.1
2014-Apr-20 10:33N 51°23' E 004°02'7 6.5
2014-Apr-20 09:33N 51°21' E 003°53'9 9.4
2014-Apr-20 08:33N 51°25' E 003°39'10 9.8
2014-Apr-20 07:33N 51°31' E 003°26'1111.1
2014-Apr-20 06:33N 51°41' E 003°18'6 5.9
2014-Apr-20 05:31N 51°47' E 003°19'0 0.1
2014-Apr-20 04:28N 51°47' E 003°19'0 0.0
2014-Apr-20 03:31N 51°47' E 003°19'0 0.1
2014-Apr-20 02:19N 51°47' E 003°19'0 0.0
2014-Apr-20 01:28N 51°47' E 003°19'0 0.0
2014-Apr-20 00:31N 51°47' E 003°19'0 0.0
2014-Apr-19 23:33N 51°47' E 003°19'0 0.0
2014-Apr-19 22:30N 51°47' E 003°19'0 0.0
2014-Apr-19 21:33N 51°47' E 003°19'0 0.0
2014-Apr-19 20:33N 51°47' E 003°19'0 0.0
2014-Apr-19 19:33N 51°47' E 003°19'0 0.1
2014-Apr-19 18:30N 51°47' E 003°19'0 0.0
2014-Apr-19 17:33N 51°47' E 003°19'0 0.0
2014-Apr-19 16:33N 51°47' E 003°19'0 0.0
2014-Apr-19 15:30N 51°47' E 003°19'0 0.1
2014-Apr-19 11:30N 51°47' E 003°19'76 7.4
2014-Apr-19 01:11N 52°58' E 004°01'913.8
2014-Apr-19 00:32N 53°04' E 004°12'30111.9
2014-Apr-17 23:18N 57°19' E 008°51'911.4
2014-Apr-17 22:33N 57°23' E 009°05'1111.3
2014-Apr-17 21:33N 57°30' E 009°22'2611.0
2014-Apr-17 19:12N 57°42' E 010°04'711.0
2014-Apr-17 18:33N 57°45' E 010°16'1010.5
2014-Apr-17 17:33N 57°49' E 010°35'1010.0
2014-Apr-17 16:33N 57°47' E 010°53'1211.8
2014-Apr-17 15:33N 57°38' E 011°08'1312.6
2014-Apr-17 14:33N 57°29' E 011°25'1413.6
2014-Apr-17 13:34N 57°17' E 011°33'1413.7
2014-Apr-17 12:33N 57°04' E 011°42'1313.4
2014-Apr-17 11:33N 56°51' E 011°50'1313.1
2014-Apr-17 10:33N 56°39' E 011°57'1312.7
2014-Apr-17 09:33N 56°27' E 012°05'1313.0
2014-Apr-17 08:33N 56°17' E 012°20'1413.9
2014-Apr-17 07:33N 56°06' E 012°35'1413.6
2014-Apr-17 06:33N 55°53' E 012°44'1313.0
2014-Apr-17 05:33N 55°40' E 012°41'1110.6
2014-Apr-17 04:33N 55°30' E 012°42'1211.6
2014-Apr-17 03:33N 55°18' E 012°43'1312.9
2014-Apr-17 02:34N 55°16' E 013°05'1313.3
2014-Apr-17 01:33N 55°15' E 013°28'1413.6
2014-Apr-17 00:33N 55°14' E 013°52'1413.8
2014-Apr-16 23:33N 55°14' E 014°16'1313.5
2014-Apr-16 22:33N 55°24' E 014°31'1313.2
2014-Apr-16 21:33N 55°32' E 014°50'1313.3
2014-Apr-16 20:33N 55°39' E 015°11'1313.1
2014-Apr-16 19:33N 55°45' E 015°31'1313.1
2014-Apr-16 18:33N 55°52' E 015°51'1313.0
2014-Apr-16 17:33N 55°58' E 016°11'1313.0
2014-Apr-16 16:33N 56°05' E 016°31'  

Dump ship's entire track history

sailing weather and tide predictions

Amarant — CQSF — position and weather